Latest Coastal Weather Observations for Maningrida Airport

IDD60701

Issued at 11:11 am CST Sunday 30 August 2015 (issued every 10 minutes, with the page automatically refreshed every 10 minutes)

About coastal observations | Map of coastal stations | Coastal observations for NT | Marine services | Other Formats
Station Details ID: 014405 Name: MANINGRIDA AIRPORT Lat: -12.06 Lon: 134.23 Height: 28.1 m
Data from the previous 72 hours. | See also: Recent months at Maningrida Airport
Date/Time
CST
Temp

°C
Wind Pressure Rain
since 9am
mm
Weather Cloud Vis
km
Sea
Height
m
Swell
Dir
 
Speed
knots
Gust
knots
hPa Trend Height
m
Period
s
Dir
30/11:00am 30.2 - - - 1016.0 - 0.0 - - 10 - - - -
30/10:30am 28.9 - - - 1016.3 - 0.0 - - 10 - - - -
30/10:00am 27.9 - - - 1016.4 - 0.0 - - 10 - - - -
30/09:30am 26.8 - - - 1016.4 - 0.0 - - 10 - - - -
30/09:00am 25.9 - - - 1016.4 - 0.0 - - 10 - - - -
30/08:30am 24.4 - - - 1016.2 - 0.0 - - 10 - - - -
30/08:00am 23.2 - - - 1015.8 - 0.0 - - 10 - - - -
30/07:30am 22.0 - - - 1015.4 - 0.0 - - 10 - - - -
30/07:00am 20.0 - - - 1015.2 - 0.0 - - 10 - - - -
30/06:30am 19.4 - - - 1014.7 - 0.0 - - 10 - - - -
30/06:00am 19.6 - - - 1014.5 - 0.0 - - 10 - - - -
30/05:30am 19.5 - - - 1014.3 - 0.0 - - 10 - - - -
30/05:00am 20.2 - - - 1014.2 - 0.0 - - 10 - - - -
30/04:30am 21.0 - - - 1013.9 - 0.0 - - 10 - - - -
30/04:00am 21.3 - - - 1013.7 - 0.0 - - 10 - - - -
30/03:30am 21.5 - - - 1013.8 - 0.0 - - 10 - - - -
30/03:00am 22.0 - - - 1013.9 - 0.0 - - 10 - - - -
30/02:30am 22.1 - - - 1014.1 - 0.0 - - 10 - - - -
30/02:00am 22.1 - - - 1014.4 - 0.0 - - 10 - - - -
30/01:30am 22.2 - - - 1014.6 - 0.0 - - 10 - - - -
30/01:00am 22.4 - - - 1014.6 - 0.0 - - 10 - - - -
30/12:30am 22.7 - - - 1014.7 - 0.0 - - 10 - - - -
30/12:00am 23.2 - - - 1014.9 - 0.0 - Mostly clear 10 - - - -
 
Date/Time
CST
Temp

°C
Wind Pressure Rain
since 9am
mm
Weather Cloud Vis
km
Sea
Height
m
Swell
Dir
 
Speed
knots
Gust
knots
hPa Trend Height
m
Period
s
Dir
29/11:30pm 24.5 - - - 1014.9 - 0.0 - Partly cloudy 10 - - - -
29/11:00pm 24.6 - - - 1015.0 - 0.0 - Partly cloudy 10 - - - -
29/10:30pm 24.8 - - - 1014.9 - 0.0 - - 10 - - - -
29/10:00pm 24.8 - - - 1014.8 - 0.0 - - 10 - - - -
29/09:30pm 24.8 - - - 1014.8 - 0.0 - - 10 - - - -
29/09:00pm 24.9 - - - 1014.7 - 0.0 - - 10 - - - -
29/08:30pm 24.9 - - - 1014.4 - 0.0 - - 10 - - - -
29/08:00pm 25.1 - - - 1014.0 - 0.0 - - 10 - - - -
29/07:30pm 25.4 - - - 1013.7 - 0.0 - - 10 - - - -
29/07:00pm 25.8 - - - 1013.4 - 0.0 - - 10 - - - -
29/06:30pm 26.2 - - - 1013.1 - 0.0 - - 10 - - - -
29/06:00pm 26.8 - - - 1012.8 - 0.0 - - 10 - - - -
29/05:30pm 27.6 - - - 1012.6 - 0.0 - - 10 - - - -
29/05:00pm 28.5 - - - 1012.6 - 0.0 - - 10 - - - -
29/04:30pm 28.2 - - - 1012.5 - 0.0 - - 10 - - - -
29/04:00pm 28.7 - - - 1012.4 - 0.0 - - 10 - - - -
29/03:30pm 29.2 - - - 1012.4 - 0.0 - - 10 - - - -
29/03:00pm 29.6 - - - 1012.8 - 0.0 - - 10 - - - -
29/02:30pm 29.7 - - - 1013.2 - 0.0 - - 10 - - - -
29/02:00pm 29.1 - - - 1013.8 - 0.0 - - 10 - - - -
29/01:30pm 30.1 - - - 1014.3 - 0.0 - - 10 - - - -
29/01:00pm 29.8 - - - 1014.9 - 0.0 - - 10 - - - -
29/12:30pm 29.6 - - - 1015.3 - 0.0 - - 10 - - - -
29/12:00pm 29.1 - - - 1015.7 - 0.0 - Mostly clear 10 - - - -
29/11:30am 28.9 - - - 1016.2 - 0.0 - Partly cloudy 10 - - - -
29/11:00am 27.7 - - - 1016.7 - 0.0 - Partly cloudy 10 - - - -
29/10:30am 27.7 - - - 1017.1 - 0.0 - Partly cloudy 10 - - - -
29/10:00am 27.8 - - - 1017.1 - 0.0 - Partly cloudy 10 - - - -
29/09:30am 26.1 - - - 1017.1 - 0.0 - Partly cloudy 10 - - - -
29/09:00am 25.8 - - - 1017.1 - 0.0 - - 10 - - - -
29/08:30am 24.7 - - - 1016.9 - 0.0 - - 10 - - - -
29/08:00am 23.2 - - - 1016.4 - 0.0 - - 10 - - - -
29/07:30am 21.8 - - - 1016.0 - 0.0 - - 10 - - - -
29/07:00am 20.7 - - - 1015.4 - 0.0 - - 10 - - - -
29/06:30am 20.0 - - - 1015.0 - 0.0 - - 10 - - - -
29/06:00am 19.8 - - - 1014.5 - 0.0 - - 10 - - - -
29/05:30am 19.5 - - - 1014.2 - 0.0 - - 10 - - - -
29/05:00am 19.7 - - - 1014.1 - 0.0 - - 10 - - - -
29/04:30am 20.1 - - - 1014.1 - 0.0 - - 10 - - - -
29/04:00am 20.2 - - - 1014.1 - 0.0 - - 10 - - - -
29/03:30am 21.0 - - - 1014.0 - 0.0 - - 10 - - - -
29/03:00am 21.2 - - - 1014.0 - 0.0 - - 10 - - - -
29/02:30am 21.2 - - - 1014.1 - 0.0 - - 10 - - - -
29/02:00am 21.4 - - - 1014.2 - 0.0 - - 10 - - - -
29/01:30am 21.7 - - - 1014.4 - 0.0 - - 10 - - - -
29/01:00am 21.7 - - - 1014.7 - 0.0 - - 10 - - - -
29/12:30am 22.1 - - - 1014.8 - 0.0 - - 10 - - - -
29/12:01am 22.5 - - - 1015.3 - 0.0 - - 10 - - - -
29/12:00am 22.6 - - - 1015.3 - 0.0 - - 10 - - - -
 
Date/Time
CST
Temp

°C
Wind Pressure Rain
since 9am
mm
Weather Cloud Vis
km
Sea
Height
m
Swell
Dir
 
Speed
knots
Gust
knots
hPa Trend Height
m
Period
s
Dir
28/11:46pm 22.8 - - - 1015.3 - 0.0 - - 5 - - - -
28/11:30pm 23.0 - - - 1015.3 - 0.0 - - 10 - - - -
28/11:00pm 23.6 - - - 1015.3 - 0.0 - - 10 - - - -
28/10:30pm 24.0 - - - 1015.4 - 0.0 - - 10 - - - -
28/10:00pm 24.5 - - - 1015.2 - 0.0 - - 10 - - - -
28/09:30pm 24.8 - - - 1014.9 - 0.0 - - 10 - - - -
28/09:00pm 24.8 - - - 1014.7 - 0.0 - - 10 - - - -
28/08:30pm 25.0 - - - 1014.3 - 0.0 - - 10 - - - -
28/08:00pm 25.0 - - - 1013.9 - 0.0 - - 10 - - - -
28/07:30pm 25.1 - - - 1013.5 - 0.0 - - 10 - - - -
28/07:00pm 25.6 - - - 1013.0 - 0.0 - - 10 - - - -
28/06:30pm 26.0 - - - 1012.6 - 0.0 - - 10 - - - -
28/06:00pm 27.0 - - - 1012.1 - 0.0 - - 10 - - - -
28/05:30pm 27.6 - - - 1011.9 - 0.0 - - 10 - - - -
28/05:00pm 28.1 - - - 1011.8 - 0.0 - - 10 - - - -
28/04:30pm 28.8 - - - 1011.6 - 0.0 - - 10 - - - -
28/04:00pm 29.0 - - - 1011.7 - 0.0 - - 10 - - - -
28/03:30pm 29.9 - - - 1012.0 - 0.0 - - 10 - - - -
28/03:00pm 29.7 - - - 1012.2 - 0.0 - - 10 - - - -
28/02:30pm 30.1 - - - 1012.6 - 0.0 - - 10 - - - -
28/02:00pm 30.7 - - - 1013.1 - 0.0 - - 10 - - - -
28/01:30pm 30.1 - - - 1013.6 - 0.0 - - 10 - - - -
28/01:00pm 30.2 - - - 1014.1 - 0.0 - - 10 - - - -
28/12:30pm 30.0 - - - 1014.6 - 0.0 - - 10 - - - -
28/12:00pm 30.6 - - - 1015.1 - 0.0 - - 10 - - - -
28/11:30am 29.7 - - - 1015.4 - 0.0 - - 10 - - - -
28/11:00am 29.3 - - - 1015.8 - 0.0 - - 10 - - - -
28/10:30am 29.1 - - - 1016.2 - 0.0 - - 10 - - - -
28/10:00am 28.9 - - - 1016.4 - 0.0 - - 10 - - - -
28/09:30am 27.4 - - - 1016.3 - 0.0 - - 10 - - - -
28/09:00am 26.4 - - - 1016.2 - 0.0 - - 10 - - - -
28/08:30am 24.3 - - - 1015.9 - 0.0 - - 10 - - - -
28/08:00am 23.2 - - - 1015.5 - 0.0 - - 10 - - - -
28/07:30am 21.3 - - - 1015.2 - 0.0 - - 10 - - - -
28/07:00am 18.8 - - - 1015.1 - 0.0 - - 10 - - - -
28/06:58am 18.7 - - - 1015.1 - 0.0 - - 10 - - - -
28/06:40am 18.8 - - - 1014.9 - 0.0 - - 5 - - - -
28/06:30am 19.1 - - - 1014.8 - 0.0 - - 9 - - - -
28/06:16am 19.4 - - - 1014.5 - 0.0 - - 10 - - - -
28/06:00am 19.5 - - - 1014.3 - 0.0 - - 4 - - - -
28/05:57am 19.6 - - - 1014.2 - 0.0 - - 5 - - - -
28/05:30am 20.2 - - - 1014.0 - 0.0 - - 10 - - - -
28/05:00am 20.7 - - - 1013.9 - 0.0 - - 10 - - - -
28/04:30am 20.9 - - - 1013.9 - 0.0 - - 10 - - - -
28/04:00am 21.4 - - - 1014.1 - 0.0 - - 10 - - - -
28/03:30am 21.7 - - - 1014.3 - 0.0 - - 10 - - - -
28/03:00am 21.8 - - - 1014.4 - 0.0 - - 10 - - - -
28/02:30am 21.8 - - - 1014.6 - 0.0 - - 10 - - - -
28/02:00am 22.2 - - - 1014.6 - 0.0 - - 10 - - - -
28/01:30am 22.4 - - - 1014.9 - 0.0 - - 10 - - - -
28/01:00am 21.8 - - - 1015.1 - 0.0 - - 10 - - - -
28/12:30am 21.9 - - - 1015.2 - 0.0 - - 10 - - - -
28/12:00am 21.9 - - - 1015.2 - 0.0 - - 10 - - - -
 
Date/Time
CST
Temp

°C
Wind Pressure Rain
since 9am
mm
Weather Cloud Vis
km
Sea
Height
m
Swell
Dir
 
Speed
knots
Gust
knots
hPa Trend Height
m
Period
s
Dir
27/11:30pm 22.9 - - - 1015.4 - 0.0 - - 10 - - - -
27/11:00pm 24.2 - - - 1015.3 - 0.0 - - 10 - - - -
27/10:30pm 24.4 - - - 1015.3 - 0.0 - - 10 - - - -
27/10:00pm 24.5 - - - 1015.2 - 0.0 - - 10 - - - -
27/09:30pm 24.6 - - - 1015.0 - 0.0 - - 10 - - - -
27/09:00pm 24.7 - - - 1014.6 - 0.0 - - 10 - - - -
27/08:30pm 24.9 - - - 1014.4 - 0.0 - - 10 - - - -
27/08:00pm 25.0 - - - 1014.3 - 0.0 - - 10 - - - -
27/07:30pm 25.2 - - - 1014.1 - 0.0 - - 10 - - - -
27/07:00pm 25.3 - - - 1013.7 - 0.0 - - 10 - - - -
27/06:30pm 25.6 - - - 1013.4 - 0.0 - - 10 - - - -
27/06:00pm 26.2 - - - 1013.0 - 0.0 - - 10 - - - -
27/05:30pm 27.1 - - - 1012.8 - 0.0 - - 10 - - - -
27/05:00pm 27.2 - - - 1012.5 - 0.0 - - 10 - - - -
27/04:30pm 27.3 - - - 1012.2 - 0.0 - - 10 - - - -
27/04:00pm 28.4 - - - 1012.4 - 0.0 - - 10 - - - -
27/03:30pm 28.9 - - - 1012.5 - 0.0 - - 10 - - - -
27/03:00pm 29.1 - - - 1012.8 - 0.0 - - 10 - - - -
27/02:30pm 29.4 - - - 1013.1 - 0.0 - - 10 - - - -
27/02:00pm 29.3 - - - 1013.5 - 0.0 - - 10 - - - -
27/01:30pm 28.4 - - - 1013.7 - 0.0 - - 10 - - - -
27/01:00pm 29.5 - - - 1014.1 - 0.0 - - 10 - - - -
27/12:30pm 28.7 - - - 1014.4 - 0.0 - - 10 - - - -
27/12:00pm 28.9 - - - 1014.9 - 0.0 - - 10 - - - -
27/11:30am 28.2 - - - 1015.3 - 0.0 - Partly cloudy 10 - - - -

Other Formats:

Comma delimited format used in spreadsheet applications
http://www.bom.gov.au/fwo/IDD60701/IDD60701.95142.axf

JavaScript Object Notation format (JSON) in row-major order
http://www.bom.gov.au/fwo/IDD60701/IDD60701.95142.json